Location: Goettingen
(51.5300°N, 9.9433°E)
Time: 04:45:09
(UTC+01:00)

ISS - Pass Details

Date: 25 November 2021
Orbit: 417 x 423 km, 51.6° (Epoch: 29 November)

Event Time Altitude Azimuth Distance (km) Brightness Sun altitude
Rises 16:58:34 0° 222° (SW) 2,369 1.6 -6.2°
Reaches altitude 10° 17:00:48 10° 212° (SSW) 1,508 0.1 -6.5°
Maximum altitude 17:03:48 30° 149° (SSE) 797 -2.4 -6.9°
Drops below altitude 10° 17:06:49 10° 87° (E) 1,514 -1.5 -7.3°
Enters shadow 17:07:07 - 85° (E) 1,627 -1.4 -7.4°
